Hialeah, FL (33010)

9:15 AM EDT on July 25, 2016 (GMT -0400)
Little Havana-West Flagler Street in Miami Florida | | Change Station

Elev 13 ft 25.77 °N, 80.25 °W | Updated 3 seconds ago

Mostly Cloudy
Mostly Cloudy
88.3 °F
Feels Like 100 °F
N
4.7
Wind Variable Wind from ESE
Gusts 8.3 mph

Today
High -- | Low -- °F
--% Chance of Precip.
Yesterday
High -- | Low -- °F
Precip. -- in
Pressure 30.07 in
Visibility 10.0 miles
Clouds Mostly Cloudy 2300 ft
Mostly Cloudy 25000 ft
Heat Index 100 °F
Dew Point 77 °F
Humidity 69%
Rainfall 0.00 in
Snow Depth Not available.
6:44 AM 8:10 PM
Waning Gibbous, 66% visible
SPECI KMIA 251305Z 09010KT 10SM BKN023 BKN250 29/23 A3007 RMK AO2 T02940233
Pressure 30.07 in
Visibility 10.0 miles
Clouds Mostly Cloudy 2300 ft
Mostly Cloudy 25000 ft
Heat Index 100 °F
Dew Point 77 °F
Humidity 69%
Rainfall 0.00 in
Snow Depth Not available.
6:44 AM 8:10 PM
Waning Gibbous, 66% visible
SPECI KMIA 251305Z 09010KT 10SM BKN023 BKN250 29/23 A3007 RMK AO2 T02940233

10-Day Weather Forecast

Almanac

Astronomy

Jul. 25, 2016 Rise Set
Actual Time
Civil Twilight
Nautical Twilight
Astronomical Twilight
Moon
Length of Visible Light
Length of Day
Tomorrow will be .
, % of the Moon is Illuminated

Today's Extremes

State Highs State Lows

Community

WunderPhotos

Upload Photos

1,927,297 photos uploaded!

WunderBlog® & News

Nearby

Air Quality

  Air Quality AQ Index Pollutant
Not available.

Snow Depth

Station Depth Elevation

Earthquake Activity

City Distance Mag. Time & Date
Minimum magnitude displayed is 2.5.

Coastal Water Temperatures

Place Temperature

Stations

Nearby Weather Stations

Station Location Temp. Windchill Dew Point Humidity Wind Precip. Elev Updated Type
                   

Watches & Warnings

There are currently no watches in effect.